Location: De Roemer
(52.0829°N, 4.6363°E)
Time: 06:36:04
(UTC+00:00)

Daily predictions for brighter satellites

Satellite Brightness Start Highest point End
(mag) Time Altitude Azimuth Time Altitude Azimuth Time Altitude Azimuth
Meteor 1-21 4.2 18:06:35 10° N 18:12:13 70° ENE 18:17:47 10° SSE
Cosmos 1603 4.1 18:08:21 10° NNW 18:14:02 72° WSW 18:19:37 10° SSE
Helios 1A Rocket 4.2 18:12:38 10° S 18:16:35 46° W 18:20:35 10° NNW
NOSS 3-1 (A) 3.9 18:11:49 10° WSW 18:17:28 67° NW 18:24:14 10° NE
CSL-04 Rocket 3.7 18:12:30 10° SSE 18:17:54 74° ENE 18:23:26 10° NNW
SJ 16-02 1.6 18:15:38 10° SSW 18:20:01 75° WNW 18:24:26 10° NNE
OBJECT-B 3.0 18:20:10 10° E 18:21:26 12° ENE 18:22:44 10° NE
Cosmos 1937 Rocket 3.7 18:18:47 10° S 18:23:51 51° ESE 18:28:55 10° NNE
NOSS 8 (E) 4.1 18:20:46 10° SSW 18:23:53 61° SE 18:26:54 10° NE
Abrixas rocket 2.8 18:26:41 10° SW 18:29:18 33° S 18:31:44 11° ESE
Okean 2 Rocket 3.9 18:27:09 10° SSE 18:31:03 30° E 18:34:57 10° NNE
NOSS 2-2 (E) 3.9 18:29:26 10° S 18:32:34 30° ESE 18:36:06 10° ENE
Cosmos 1464 Rocket 4.4 18:27:07 10° SSE 18:32:46 41° E 18:38:30 10° NNE
SL-08 RB Rocket 4.1 18:29:21 10° SE 18:33:42 45° ENE 18:38:04 10° N
USA 116 3.4 18:30:37 10° NNE 18:33:59 65° ESE 18:37:41 10° S
Okean 2 4.1 18:30:27 10° NNW 18:34:36 61° W 18:38:41 10° S
Cosmos 1544 3.8 18:32:37 10° SSW 18:36:15 57° WNW 18:39:52 10° N
Okean-O 4.1 18:33:07 10° S 18:37:19 42° W 18:41:34 10° NNW
ATLAS 2AS CENTAUR R/B 4.5 18:36:37 10° ESE 18:39:09 12° E 18:41:42 10° E
Cosmos 1300 Rocket 4.2 18:35:39 10° SSE 18:39:37 34° E 18:43:38 10° NNE
NOSS 2-2 (D) 4.0 18:38:10 10° S 18:41:15 29° ESE 18:44:41 10° ENE
CENTAUR R/B 3.3 18:36:28 10° NW 18:44:05 61° NE 18:51:59 13° ESE
USA 102 4.5 18:41:27 10° SE 18:44:58 16° SE 18:45:14 16° SE
Iridium 4 Rocket 4.0 18:40:47 10° SSW 18:45:47 69° W 18:51:18 10° N
Cosmos 2082 Rocket 4.1 18:42:38 10° NNW 18:46:07 16° NNE 18:49:36 10° ENE
YAOGAN 1 3.8 18:42:30 10° S 18:46:39 45° W 18:50:50 10° NNW
Cosmos 1975 3.3 18:43:15 10° SSW 18:47:19 68° WNW 18:51:25 10° N
Cosmos 1437 4.2 18:46:26 10° NNW 18:49:15 37° W 18:52:03 10° SSW
DMSP B5D1-3 4.5 18:44:15 10° NNE 18:49:23 84° ESE 18:54:29 10° SSW
Cosmos 1674 3.7 18:46:19 10° N 18:49:41 28° ENE 18:52:10 15° ESE
H-2A R/B 2.2 18:45:47 10° S 18:50:45 77° WSW 18:55:53 10° NNW
ATLAS 3B R/B 3.6 18:44:48 10° NW 18:51:01 37° NNE 18:56:56 12° E
CZ-4 R/B 3.4 18:48:16 10° SSW 18:52:07 33° W 18:55:57 10° NNW
Cosmos 1048 Rocket 4.2 18:47:41 10° NNW 18:52:56 58° ENE 18:58:02 11° SE
Cosmos 1536 Rocket 3.8 18:49:56 10° N 18:54:16 48° ENE 18:58:35 10° SSE
ISS -2.3 18:52:22 10° SSW 18:55:02 22° SE 18:56:08 19° ESE
USA 238 DEB 3.9 18:48:31 10° NW 18:55:42 80° NE 19:02:30 13° SE
USA 238 3.9 18:48:38 10° NW 18:55:48 80° NE 19:02:35 13° SE
In-Cosmos 22 4.0 18:51:31 10° N 18:56:49 71° ENE 19:02:09 10° SSE
COSMOS 2406 4.4 18:52:38 10° NNW 18:57:26 27° NE 19:01:06 15° E
Cosmos 1891 Rocket 4.4 18:54:06 10° S 19:00:09 66° E 19:06:09 10° NNE
Cosmos 1025 Rocket 3.0 18:59:54 10° N 19:04:18 77° ENE 19:08:41 10° SSE
ARGOS 3.3 18:58:56 10° S 19:04:18 77° WSW 19:09:43 10° NNW
CZ-2C R/B 3.0 18:59:17 10° NNE 19:04:34 44° E 19:09:53 10° S
Cosmos 1782 Rocket 4.4 19:03:14 10° SSW 19:07:34 56° WNW 19:11:59 10° N
Cosmos 1707 3.0 19:03:45 10° NNW 19:07:35 69° W 19:11:23 10° S
KORONAS-FOTON 4.2 19:07:34 10° N 19:11:22 44° ENE 19:13:36 21° SE
Cosmos 2151 Rocket 3.7 19:08:03 10° S 19:12:22 52° E 19:16:46 10° NNE
USA 186 1.9 19:13:08 10° S 19:16:16 74° WSW 19:19:32 10° NNW
CREW DRAGON DEMO-1 DEB 2.7 19:13:53 10° W 19:16:55 78° S 19:18:00 36° ESE
Ariane Rocket 3.0 19:14:08 10° SSE 19:19:13 87° WSW 19:24:21 10° NNW
SJ-6B 2.6 19:16:15 13° SSE 19:19:31 84° ENE 19:23:19 10° NNW
Cosmos 1844 4.2 19:16:29 10° S 19:21:33 34° ESE 19:26:35 10° NE
FREGAT/IRIS 2.1 19:20:39 30° SSE 19:21:45 89° W 19:24:23 10° NNW
Nadezhda 4 Rocket 3.9 19:15:36 10° N 19:21:46 82° E 19:27:54 10° SSE
Cosmos 494 Rocket 4.0 19:17:25 10° NNW 19:22:41 66° ENE 19:26:06 22° SE
NOSS 3-2 (A) 4.1 19:15:59 10° NW 19:23:20 78° SW 19:30:19 16° SE
Cosmos 1766 4.3 19:23:36 26° E 19:23:36 26° E 19:26:47 10° NNE
Cosmos 2263 Rocket 2.8 19:17:56 10° SW 19:23:26 58° NW 19:28:59 10° NNE
Terra 4.0 19:23:42 10° ENE 19:24:41 11° NE 19:25:52 10° NE
NOSS 2-2 (C) 3.0 19:22:09 10° SW 19:25:39 72° SE 19:29:44 10° NE
MOS 1 4.3 19:22:13 10° SSE 19:27:56 86° WSW 19:33:42 10° NNW
Lacrosse 4 Rocket 3.3 19:26:07 10° NNW 19:28:47 17° NNE 19:30:19 14° NE
Cosmos 1844 Rocket 2.8 19:24:52 10° S 19:30:09 47° ESE 19:35:30 10° NE
Cosmos 2034 Rocket 4.0 19:23:56 10° S 19:30:17 74° E 19:36:38 10° NNE
Cosmos 2298 Rocket 4.0 19:27:18 10° S 19:32:34 65° ESE 19:37:52 10° NNE
ATLAS CENTAUR R/B 3.8 19:33:18 10° NW 19:35:31 15° NNW 19:37:44 10° NNE
SPOT 3 Rocket 3.5 19:32:57 23° SE 19:36:10 66° ENE 19:41:18 10° N
USA 234 3.7 19:37:13 13° ENE 19:42:30 37° SE 19:48:28 10° SSW
SWAS 4.4 19:39:47 10° NW 19:44:07 81° WSW 19:45:52 35° SSE
IGS 5A 4.4 19:44:06 30° ENE 19:44:19 30° ENE 19:47:57 10° N
Resurs 01 Rocket 1.7 19:42:54 37° SE 19:44:25 57° ENE 19:48:48 10° N
Lacrosse 5 rocket 2.4 19:42:38 10° WNW 19:46:50 45° N 19:49:28 21° ENE
MetOp-A 4.4 19:42:59 10° S 19:48:17 67° WSW 19:53:39 10° NNW
Cosmos 1833 Rocket 3.4 19:44:11 10° NNW 19:49:32 40° NE 19:51:25 31° E
SPOT 5 4.4 19:49:28 22° ENE 19:50:18 23° ENE 19:54:25 10° N
Cosmos 372 Rocket 4.3 19:46:36 10° SW 19:51:50 68° WNW 19:57:04 10° NNE
OBJECT-B 1.1 19:52:33 45° SSW 19:53:20 65° WSW 19:56:36 10° NNW
Meteor 1-15 Rocket 4.1 19:49:04 10° S 19:54:41 81° E 20:00:27 10° NNE
Cosmos 1626 2.1 19:52:22 10° N 19:56:03 59° ENE 19:56:03 59° ENE
NOSS 3-2 (C) 4.1 19:50:48 10° NW 19:58:09 75° SW 20:03:03 27° SSE
DMSP B5D2-2 4.1 19:53:00 10° NNE 19:58:20 86° WNW 20:03:39 10° SSW
SJ 16-02 4.5 19:56:59 10° WNW 19:59:25 14° NW 20:01:51 10° N
ARIANE 5 R/B 2.8 20:01:02 49° E 20:01:24 50° ENE 20:05:38 10° N
Cosmos 2150 Rocket 4.1 19:56:54 10° SSW 20:02:18 83° WNW 20:07:49 10° NNE
Cosmos 1634 Rocket 3.9 19:59:03 23° SSE 20:02:53 61° E 20:09:00 10° NNE
Abrixas rocket 3.9 20:01:37 10° WSW 20:03:00 23° WSW 20:03:00 23° WSW
BREEZE-M TANK 3.6 19:58:13 10° WSW 20:04:30 34° S 20:04:37 34° S
Landsat 7 3.9 20:09:07 51° E 20:09:37 53° ENE 20:14:16 10° N
Cosmos 1125 Rocket 3.4 20:04:48 10° SSW 20:10:06 81° ESE 20:15:28 10° NNE
Cosmos 2285 Rocket 3.9 20:03:51 10° SSW 20:10:07 71° ESE 20:16:28 10° NNE
Okean 1 Rocket 3.0 20:08:19 30° S 20:10:31 89° W 20:15:03 10° N
ERS-1 Rocket 3.7 20:17:27 37° ENE 20:17:31 37° ENE 20:22:08 10° N
Resurs 1-3 4.5 20:18:56 28° SSW 20:20:54 47° W 20:25:11 10° NNW
Cosmos 1092 Rocket 4.3 20:15:09 10° NNW 20:21:13 62° W 20:25:37 19° S
Meteor 2-19 Rocket 4.5 20:15:17 10° N 20:21:22 61° ENE 20:22:38 50° ESE
Meteor 2-5 Rocket 4.0 20:16:55 10° NNW 20:22:30 65° W 20:25:27 29° S
Cosmos 1674 4.5 20:21:48 10° NNW 20:25:12 30° W 20:26:59 20° SW
Cosmos 1805 3.8 20:24:12 43° SW 20:25:12 58° WNW 20:29:06 10° N
Cosmos 2026 Rocket 4.2 20:21:08 10° NNW 20:27:29 73° W 20:30:53 29° S
ATLAS 2AS CENTAUR R/B 3.1 20:20:53 10° SSW 20:28:25 48° ESE 20:35:52 10° NE
Cosmos 2098 Rocket 4.2 20:21:35 10° N 20:28:45 57° ENE 20:30:00 50° ESE
ISS -1.4 20:28:06 10° WSW 20:29:07 18° WSW 20:29:07 18° WSW
Cosmos 2082 Rocket 2.6 20:26:14 10° NNW 20:31:40 47° NE 20:32:16 45° ENE
CENTAUR R/B 3.6 20:27:16 10° NW 20:35:03 56° SW 20:39:10 32° S
Cosmos 1733 3.8 20:36:18 56° NW 20:36:18 56° NW 20:39:41 10° N
Meteor 1-22 Rocket 4.2 20:34:26 37° S 20:36:55 88° ESE 20:43:02 10° NNE
Cosmos 1892 Rocket 3.6 20:33:30 10° NNW 20:37:39 75° WNW 20:37:39 75° WNW
CZ-2C R/B 3.9 20:33:31 10° N 20:37:58 68° WNW 20:38:59 50° SW
COSMOS 2406 3.1 20:36:42 10° NNW 20:42:25 81° WSW 20:43:09 67° S
ATLAS 3B R/B 2.6 20:35:43 10° NW 20:42:34 84° NE 20:44:10 57° SE
SL-14 R/B 4.1 20:39:42 10° NNW 20:43:14 47° W 20:43:14 47° W
SPOT 1/Viking Rocket 3.4 20:43:21 80° ESE 20:43:34 83° ENE 20:48:46 10° NNW
CZ-2C R/B 4.1 20:39:46 10° N 20:44:48 38° WNW 20:49:53 10° SW
CARTOSAT-1 4.4 20:46:20 43° NNE 20:46:20 43° NNE 20:49:29 10° N
Meteor 1-24 Rocket 4.2 20:39:54 10° NNW 20:45:14 55° W 20:47:08 37° SSW
Cosmos 2279 Rocket 3.8 20:44:34 58° SSE 20:45:51 78° E 20:52:09 10° NNE
Cosmos 2142 Rocket 4.4 20:47:06 45° S 20:49:13 88° W 20:55:29 10° N
Spot 2 Rocket 3.4 20:51:07 77° SW 20:51:16 77° WSW 20:56:20 10° NNW
Exosat Rocket 4.1 20:51:06 10° SW 20:56:20 56° NW 21:01:18 10° NNE
Terra 2.7 21:02:36 42° NNE 21:02:36 42° NNE 21:06:05 10° N
Meteor 1-21 Rocket 4.2 20:57:37 10° N 21:03:07 72° NE 21:03:07 72° NE
Cosmos 2278 Rocket 3.7 21:07:57 24° NE 21:07:57 24° NE 21:10:15 10° NE
Cosmos 1844 4.4 20:59:57 10° SW 21:05:30 53° NW 21:11:02 10° NNE
Lacrosse 4 Rocket 2.8 21:04:09 10° NNW 21:06:37 35° NNW 21:06:37 35° NNW
Okean 1-7 Rocket 4.4 21:04:23 10° NNW 21:08:19 50° WNW 21:08:19 50° WNW
Cosmos 909 Rocket 3.9 21:02:26 10° NW 21:09:09 84° NE 21:09:31 79° ESE
Cosmos 1844 Rocket 3.9 21:08:56 10° WSW 21:14:10 40° NW 21:19:28 10° NNE
ATLAS CENTAUR R/B 3.9 21:14:06 10° NNW 21:15:52 13° N 21:15:56 13° N
Cosmos 2251 Rocket 3.8 21:15:15 10° NNW 21:19:53 66° NW 21:19:53 66° NW
Resurs 01 Rocket 3.7 21:20:28 20° WSW 21:21:16 20° W 21:24:37 10° NW
USA 234 3.1 21:24:44 62° ENE 21:26:02 88° SSE 21:32:36 10° WSW
Lacrosse 5 rocket 3.0 21:22:11 10° WNW 21:25:05 37° NW 21:25:05 37° NW
Cosmos 1809 Rocket 4.4 21:20:57 10° N 21:26:45 78° NNE 21:26:45 78° NNE
SPOT 5 3.5 21:28:43 60° NW 21:28:43 60° NW 21:33:11 10° NNW
Cosmos 2266 Rocket 4.0 21:23:41 10° NNW 21:29:34 73° W 21:29:34 73° W
Cosmos 1833 Rocket 3.4 21:28:11 10° NW 21:33:07 46° W 21:33:07 46° W
NOSS 3-4 (A) 3.9 21:57:18 55° NNE 21:57:18 55° NNE 22:02:33 10° NE
NOSS 3-4 (C) 4.0 21:57:31 53° NNE 21:57:31 53° NNE 22:02:40 10° NE
ERS-1 Rocket 4.3 21:57:27 34° WNW 21:57:27 34° WNW 22:01:02 10° NNW
Cosmos 2082 Rocket 3.6 22:10:32 10° NW 22:14:06 32° WNW 22:14:06 32° WNW
MOS 1-B Rocket 4.4 22:10:51 10° NNE 22:16:59 76° NNE 22:16:59 76° NNE
ATLAS 2AS CENTAUR R/B 3.3 22:11:25 10° WSW 22:19:21 65° NW 22:27:07 10° NE
ATLAS 3B R/B 4.1 22:26:57 10° WNW 22:31:25 27° W 22:31:25 27° W
COSMOS 2455 4.3 22:39:35 30° NE 22:39:35 30° NE 22:42:29 10° NE
Terra 4.2 22:41:29 18° WNW 22:41:29 18° WNW 22:43:22 10° NW
NOSS 3-1 (C) 4.4 22:36:51 10° NW 22:43:42 54° NNE 22:44:16 53° NE
Cosmos 2278 Rocket 3.5 22:49:46 35° NNW 22:49:46 35° NNW 22:54:19 10° NNE
Cosmos 2227 Rocket 4.4 23:22:03 10° NNW 23:26:10 20° NNE 23:27:48 18° NE
CZ-4C R/B 3.6 23:34:17 36° NNE 23:34:17 36° NNE 23:38:19 10° NE
USA 229 DEB 4.3 23:35:03 10° NW 23:40:43 58° NNW 23:40:43 58° NNW
USA 229 4.3 23:35:09 10° NW 23:40:49 58° NNW 23:40:49 58° NNW
